Regional Weather Roundup
Issued by NWS

Home | Current Version | Previous Version | Text Only | Print | Product List | Glossary Off
Versions: 1 2 3 4 5 6 7 8 9 10 11 12 13 14 15 16 17 18 19 20 21 22 23 24 25 26 27 28 29 30 31 32 33 34 35 36 37 38 39 40 41 42 43 44 45 46 47 48 49 50

000
ASUS43 KLOT 050821
RWRIL

ILLINOIS REGIONAL WEATHER ROUNDUP
NATIONAL WEATHER SERVICE CHICAGO/ROMEOVILLE IL
300 AM CDT SAT SEP 05 2015

NOTE: "FAIR" INDICATES FEW OR NO CLOUDS BELOW 12,000 FEET WITH NO
SIGNIFICANT WEATHER AND/OR OBSTRUCTIONS TO VISIBILITY.

* THESE STATIONS ARE NOT UNDER NWS QUALITY CONTROL. THEY ALSO MAY NOT
  REPORT WEATHER SUCH AS PRECIPITATION OR FOG.

ILZ001-002-007-009-015-016-024-050900-
NORTHWEST ILLINOIS

CITY           SKY/WX    TMP DP  RH WIND       PRES   REMARKS
MOLINE         PTCLDY    76  68  76 CALM      30.01S
STERLING*      CLEAR     70  70 100 E3        30.02S
SAVANNA*       PTCLDY    73  70  92 CALM      30.02S FOG
$$

ILZ003-004-008-010-011-017-018-050900-
NORTH CENTRAL ILLINOIS

CITY           SKY/WX    TMP DP  RH WIND       PRES   REMARKS
ROCKFORD       MOCLDY    69  66  90 SE3       30.05F
FREEPORT*      CLEAR     67  66  98 E5        30.06S FOG
ROCHELLE*      MOCLDY    68  67  96 CALM      30.05S FOG
DE KALB*       MOCLDY    69  67  92 S7        30.06S FOG
PERU*          CLEAR     72  67  82 CALM      30.05R
$$

ILZ005-006-012>014-019>023-050900-
NORTHEAST ILLINOIS

CITY           SKY/WX    TMP DP  RH WIND       PRES   REMARKS
CHICAGO-OHARE  PTCLDY    71  67  87 CALM      30.05R
CHICAGO-MIDWAY PTCLDY    74  68  81 CALM      30.05R
AURORA         PTCLDY    68  65  90 CALM      30.06R
LANSING*       PTCLDY    67  66  98 CALM      30.05S FOG
JOLIET*        PTCLDY    71  68  92 CALM      30.04S
WAUKEGAN       PTCLDY    65  65 100 CALM      30.05S FOG
DUPAGE AIRPORT PTCLDY    69  66  90 CALM      30.05R
KANKAKEE*      CLEAR     67  66  96 CALM      30.05F
WHEELING       NOT AVBL
MORRIS*        PTCLDY    69  66  90 CALM      30.04R
ROMEOVILLE*    PTCLDY    69  66  89 SE5       30.05S
NORTHERLY ISL    N/A     70  68  93 CALM        N/A
$$

LMZ740>746-050900-
SOUTHERN LAKE MICHIGAN

STATION/POSITION SKY/WX   TEMP    WIND        PRES    VSBY  WAVE
                          AIR SEA DIR/SP/G                  HT/PER
                          (F)     (DEG/KT/KT) (MB)    (MI)  (FT/S)
SOUTHERN BUOY              69     130/  2     1017.3F
WILMETTE HARBOR            71 71  280/  2/  2   N/A           1
HARRISON CRIB              71     100/  2/  2   N/A
BURNHAM HARBOR             70      CALM  /  2   N/A
CALUMET HARBOR             71      CALM  /  1   N/A
BURNS HARBOR               71      CALM  /  2 1017.9F
MICHIGAN CITY              70      80/  4/  5   N/A
MICHIGAN CITY 6N           72 74  180/  8/  8   N/A           1
ST. JOSEPH                 72 75  170/  6/  6   N/A           1
$$

ILZ025>027-034>036-040-047-049-050-058-095>099-050900-
WEST-CENTRAL ILLINOIS

CITY           SKY/WX    TMP DP  RH WIND       PRES   REMARKS
QUINCY         CLEAR     75  69  81 S3        30.03S
GALESBURG*     PTCLDY    73  68  86 SE5       30.04R
MACOMB*        CLEAR     69  67  94 E5        30.05S
JACKSONVILLE*  CLEAR     75  70  86 SE6       30.04S
PITTSFIELD*    CLEAR     74  68  82 CALM      30.05S
$$

ILZ028>032-037-038-041>044-048-051>054-059>061-050900-
CENTRAL ILLINOIS

CITY           SKY/WX    TMP DP  RH WIND       PRES   REMARKS
PONTIAC        CLEAR     70  68  92 S3        30.05R
BLOOMINGTON    CLEAR     71  65  81 SW5       30.07R
DECATUR        PTCLDY    70  62  76 SW3       30.04F
PEORIA         CLEAR     75  67  76 SW5       30.04S
LACON*         PTCLDY    73  66  81 CALM      30.03R
LINCOLN*       CLEAR     72  64  78 S3        30.03S
SPRINGFIELD    CLEAR     73  66  78 S3        30.04S
TAYLORVILLE    CLEAR     68  64  88 CALM      30.05R
$$

ILZ033-039-045-046-055>057-062-063-050900-
EAST-CENTRAL ILLINOIS

CITY           SKY/WX    TMP DP  RH WIND       PRES   REMARKS
CHAMPAIGN      CLEAR     67  63  87 SE6       30.06R
RANTOUL*       CLEAR     69  66  88 SE3       30.06R
MATTOON        CLEAR     70  66  87 SE6       30.05S
PARIS*         CLEAR     67  66  96 CALM      30.07S
$$

ILZ079-100>102-050900-
SOUTHWEST ILLINOIS

CITY           SKY/WX    TMP DP  RH WIND       PRES   REMARKS
ALTON          CLEAR     70  69  97 CALM      30.03F FOG
BELLEVILLE     CLEAR     72  72 100 CALM      30.02S FOG
CAHOKIA*       CLEAR     73  68  84 CALM      30.03S
SPARTA*        CLEAR     70  69  96 CALM      30.05R
$$

ILZ064>066-069>071-074>076-080>082-084>086-088>090-092>094-050900-
SOUTH-CENTRAL ILLINOIS

CITY           SKY/WX    TMP DP  RH WIND       PRES   REMARKS
CARBONDALE     FOG       67  66  97 CALM      30.03S VSB 1/4
CAIRO*         CLEAR     67  67 100 CALM      30.02F FOG
EFFINGHAM*     CLEAR     67  64  90 CALM      30.06R
MARION           N/A     72  72 100 CALM      30.04S FOG
MT. VERNON     CLEAR     68  63  83 CALM      30.04S
CENTRALIA*     CLEAR     69  68  99 N6        30.03S
SALEM*         CLEAR     69  67  92 CALM      30.03S FOG
METROPOLIS*      N/A     67  67 100 CALM      30.04S FOG
$$

ILZ067-068-072-073-078-083-087-091-050900-
SOUTHEAST ILLINOIS

CITY           SKY/WX    TMP DP  RH WIND       PRES   REMARKS
LAWRENCEVILLE  CLEAR     73  68  84 SW3       30.06S
FLORA*         CLEAR     69  66  91 CALM      30.05S
FAIRFIELD*     CLEAR     68  67  98 CALM      30.03S
HARRISBURG*    CLEAR     67  66  96 CALM      30.04S FOG
ROBINSON*      CLEAR     68  66  94 E3        30.07S
CARMI*         CLEAR     67  67  99 SW5       30.02F FOG
$$

ABBREVIATIONS USED IN REMARKS
   TC - TEMPERATURE IN CELSIUS
  WCI - WIND CHILL INDEX
   HX - HEAT INDEX
  VSB - VISIBILITY
$$



USA.gov is the U.S. government's official web portal to all federal, state and local government web resources and services.